Hourly Weather Otradnoe

Today, 1 August, Sunday

Time Temperature Precipitation Wind Pressure Humidity
00:00 +17°C° 0.2 mm 2 mps 742 mmHg 82%
01:00 +17°C° 0.2 mm 2 mps 742 mmHg 87%
02:00 +16°C° 0.2 mm 3 mps 741 mmHg 91%
03:00 +16°C° 0.2 mm 3 mps 741 mmHg 93%
04:00 +17°C° 0.2 mm 2 mps 741 mmHg 94%
05:00 +17°C° 0.2 mm 2 mps 741 mmHg 96%
06:00 +18°C° 0 mm 3 mps 741 mmHg 90%
07:00 +19°C° 0 mm 3 mps 741 mmHg 85%
08:00 +21°C° 0 mm 4 mps 741 mmHg 80%
09:00 +22°C° 0.1 mm 5 mps 742 mmHg 68%
10:00 +23°C° 0.1 mm 5 mps 742 mmHg 56%
11:00 +26°C° 0.1 mm 6 mps 742 mmHg 43%
12:00 +26°C° 0 mm 6 mps 742 mmHg 42%
13:00 +26°C° 0 mm 6 mps 742 mmHg 42%
14:00 +27°C° 0 mm 6 mps 742 mmHg 41%
15:00 +26°C° 0 mm 5 mps 743 mmHg 44%
16:00 +25°C° 0 mm 5 mps 743 mmHg 48%
17:00 +25°C° 0 mm 4 mps 743 mmHg 52%
18:00 +22°C° 0 mm 3 mps 743 mmHg 57%
19:00 +21°C° 0 mm 3 mps 743 mmHg 63%
20:00 +19°C° 0 mm 2 mps 742 mmHg 69%
21:00 +19°C° 0 mm 2 mps 742 mmHg 70%
22:00 +20°C° 0 mm 1 mps 742 mmHg 72%
23:00 +19°C° 0 mm 1 mps 742 mmHg 73%

Tomorrow, 2 August, Monday

Time Temperature Precipitation Wind Pressure Humidity
00:00 +17°C° 0.2 mm 2 mps 742 mmHg 80%
01:00 +16°C° 0.2 mm 2 mps 742 mmHg 86%
02:00 +14°C° 0.2 mm 3 mps 742 mmHg 92%
03:00 +14°C° 0.4 mm 3 mps 742 mmHg 93%
04:00 +14°C° 0.4 mm 3 mps 741 mmHg 95%
05:00 +14°C° 0.4 mm 3 mps 741 mmHg 96%
06:00 +15°C° 0.5 mm 2 mps 740 mmHg 96%
07:00 +16°C° 0.5 mm 2 mps 740 mmHg 97%
08:00 +16°C° 0.5 mm 2 mps 740 mmHg 97%
09:00 +16°C° 1.8 mm 2 mps 740 mmHg 97%
10:00 +16°C° 1.8 mm 2 mps 740 mmHg 97%
11:00 +16°C° 1.8 mm 3 mps 740 mmHg 97%
12:00 +16°C° 0.4 mm 3 mps 740 mmHg 96%
13:00 +17°C° 0.4 mm 3 mps 740 mmHg 94%
14:00 +17°C° 0.4 mm 3 mps 740 mmHg 93%
15:00 +17°C° 1.6 mm 3 mps 740 mmHg 94%
16:00 +16°C° 1.6 mm 3 mps 740 mmHg 95%
17:00 +16°C° 1.6 mm 3 mps 740 mmHg 97%
18:00 +16°C° 0.1 mm 3 mps 740 mmHg 96%
19:00 +16°C° 0.1 mm 2 mps 741 mmHg 95%
20:00 +16°C° 0.1 mm 2 mps 741 mmHg 95%
21:00 +16°C° 0 mm 2 mps 741 mmHg 95%
22:00 +16°C° 0 mm 3 mps 741 mmHg 95%
23:00 +14°C° 0 mm 3 mps 741 mmHg 95%

Day after tomorrow, 3 August, Tuesday

Time Temperature Precipitation Wind Pressure Humidity
00:00 +14°C° 0 mm 3 mps 742 mmHg 95%
01:00 +13°C° 0 mm 3 mps 742 mmHg 95%
02:00 +13°C° 0 mm 3 mps 742 mmHg 95%
03:00 +12°C° 0 mm 3 mps 742 mmHg 95%
04:00 +12°C° 0 mm 3 mps 743 mmHg 95%
05:00 +11°C° 0 mm 3 mps 743 mmHg 96%
06:00 +13°C° 0 mm 3 mps 743 mmHg 92%
07:00 +14°C° 0 mm 4 mps 743 mmHg 89%
08:00 +15°C° 0 mm 5 mps 744 mmHg 85%
09:00 +16°C° 0.2 mm 5 mps 744 mmHg 81%
10:00 +17°C° 0.2 mm 5 mps 744 mmHg 77%
11:00 +19°C° 0.2 mm 5 mps 744 mmHg 73%
12:00 +20°C° 0.3 mm 5 mps 744 mmHg 72%
13:00 +20°C° 0.3 mm 5 mps 744 mmHg 70%
14:00 +20°C° 0.3 mm 4 mps 745 mmHg 69%
15:00 +20°C° 0.3 mm 4 mps 745 mmHg 70%
16:00 +20°C° 0.3 mm 4 mps 745 mmHg 72%
17:00 +20°C° 0.3 mm 4 mps 745 mmHg 74%
18:00 +19°C° 0.4 mm 3 mps 745 mmHg 80%
19:00 +17°C° 0.4 mm 2 mps 746 mmHg 85%
20:00 +16°C° 0.4 mm 2 mps 746 mmHg 91%
21:00 +15°C° 0 mm 2 mps 746 mmHg 91%
22:00 +14°C° 0 mm 2 mps 747 mmHg 91%
23:00 +14°C° 0 mm 2 mps 747 mmHg 91%

4 August, Wednesday

Time Temperature Precipitation Wind Pressure Humidity
00:00 +13°C° 0 mm 2 mps 747 mmHg 90%
01:00 +12°C° 0 mm 2 mps 748 mmHg 90%
02:00 +12°C° 0 mm 1 mps 748 mmHg 89%
03:00 +11°C° 0 mm 1 mps 748 mmHg 88%
04:00 +11°C° 0 mm 1 mps 748 mmHg 87%
05:00 +11°C° 0 mm 1 mps 748 mmHg 87%
06:00 +13°C° 0 mm 1 mps 749 mmHg 82%
07:00 +14°C° 0 mm 1 mps 749 mmHg 78%
08:00 +16°C° 0 mm 1 mps 749 mmHg 74%
09:00 +19°C° 0 mm 1 mps 750 mmHg 65%
10:00 +21°C° 0 mm 1 mps 750 mmHg 57%
11:00 +23°C° 0 mm 1 mps 750 mmHg 48%
12:00 +23°C° 0 mm 1 mps 750 mmHg 47%
13:00 +24°C° 0 mm 1 mps 749 mmHg 45%
14:00 +24°C° 0 mm 2 mps 749 mmHg 43%
15:00 +24°C° 0 mm 1 mps 749 mmHg 46%
16:00 +24°C° 0 mm 1 mps 749 mmHg 48%
17:00 +24°C° 0 mm 1 mps 749 mmHg 51%
18:00 +22°C° 0.1 mm 1 mps 749 mmHg 57%
19:00 +21°C° 0.1 mm 1 mps 749 mmHg 63%
20:00 +19°C° 0.1 mm 1 mps 749 mmHg 69%
21:00 +18°C° 0 mm 2 mps 749 mmHg 69%
22:00 +18°C° 0 mm 2 mps 749 mmHg 70%
23:00 +17°C° 0 mm 2 mps 749 mmHg 70%

5 August, Thursday

Time Temperature Precipitation Wind Pressure Humidity
00:00 +17°C° 0 mm 2 mps 748 mmHg 72%
01:00 +16°C° 0 mm 2 mps 748 mmHg 75%
02:00 +16°C° 0 mm 2 mps 748 mmHg 77%
03:00 +16°C° 0 mm 2 mps 748 mmHg 78%
04:00 +16°C° 0 mm 2 mps 747 mmHg 79%
05:00 +15°C° 0 mm 2 mps 747 mmHg 79%
06:00 +16°C° 0 mm 3 mps 747 mmHg 77%
07:00 +17°C° 0 mm 3 mps 747 mmHg 75%
08:00 +18°C° 0 mm 4 mps 747 mmHg 73%
09:00 +19°C° 0 mm 4 mps 747 mmHg 70%
10:00 +20°C° 0 mm 5 mps 746 mmHg 67%
11:00 +21°C° 0 mm 6 mps 746 mmHg 64%
12:00 +21°C° 0 mm 5 mps 746 mmHg 67%
13:00 +21°C° 0 mm 5 mps 746 mmHg 70%
14:00 +21°C° 0 mm 4 mps 745 mmHg 73%
15:00 +20°C° 0.1 mm 4 mps 745 mmHg 76%
16:00 +20°C° 0.1 mm 4 mps 745 mmHg 80%
17:00 +19°C° 0.1 mm 3 mps 744 mmHg 83%
18:00 +19°C° 0.5 mm 3 mps 744 mmHg 87%
19:00 +18°C° 0.5 mm 3 mps 744 mmHg 91%
20:00 +17°C° 0.5 mm 3 mps 743 mmHg 95%
21:00 +17°C° 0.4 mm 3 mps 743 mmHg 95%
22:00 +17°C° 0.4 mm 3 mps 742 mmHg 96%
23:00 +17°C° 0.4 mm 3 mps 742 mmHg 97%

6 August, Friday

Time Temperature Precipitation Wind Pressure Humidity
00:00 +17°C° 0.6 mm 3 mps 741 mmHg 98%
01:00 +17°C° 0.6 mm 3 mps 741 mmHg 98%
02:00 +17°C° 0.6 mm 3 mps 741 mmHg 98%
03:00 +17°C° 1.3 mm 3 mps 740 mmHg 98%
04:00 +17°C° 1.3 mm 3 mps 739 mmHg 98%
05:00 +17°C° 1.3 mm 3 mps 738 mmHg 98%
06:00 +17°C° 4.1 mm 2 mps 738 mmHg 98%
07:00 +17°C° 4.1 mm 2 mps 737 mmHg 98%
08:00 +19°C° 4.1 mm 1 mps 737 mmHg 98%
09:00 +17°C° 0.9 mm 2 mps 737 mmHg 97%
10:00 +17°C° 0.9 mm 4 mps 737 mmHg 97%
11:00 +16°C° 0.9 mm 5 mps 737 mmHg 96%
12:00 +17°C° 0.5 mm 5 mps 738 mmHg 92%
13:00 +18°C° 0.5 mm 4 mps 738 mmHg 88%
14:00 +19°C° 0.5 mm 4 mps 739 mmHg 84%
15:00 +20°C° 0.2 mm 4 mps 739 mmHg 79%
16:00 +20°C° 0.2 mm 5 mps 739 mmHg 74%
17:00 +21°C° 0.2 mm 5 mps 739 mmHg 70%
18:00 +19°C° 0 mm 4 mps 739 mmHg 74%
19:00 +18°C° 0 mm 4 mps 740 mmHg 77%
20:00 +17°C° 0 mm 3 mps 740 mmHg 81%
21:00 +16°C° 0 mm 3 mps 740 mmHg 84%
22:00 +14°C° 0 mm 3 mps 740 mmHg 87%
23:00 +14°C° 0 mm 3 mps 740 mmHg 90%
Show more